Location: Rathdrum
(47.8130°N, 116.8960°W)
Time: 22:22:01
(UTC-08:00)

Amateur Radio Satellites - All Passes

Search period start: 25 January 2015 21:52
Search period end: 26 January 2015 21:52
Location: Rathdrum, 47.8130°N, 116.8960°W

Satellite Date Start Highest point End Downlink Frequencies (MHz)
Time Altitude Azimuth
DX 1 25 Jan 21:54:30 21:58:00 23° 267° (W) 22:01:26 434.975-435.025
POLYITAN 1 25 Jan 21:55:45 21:58:52 20° 91° (E) 22:02:06 437.675
FUNcube-1 25 Jan 21:58:01 22:02:01 29° 266° (W) 22:06:02 145.935
AISAT 25 Jan 21:59:32 22:03:52 49° 261° (W) 22:08:15 437.250
TIGRISAT 25 Jan 22:00:30 22:04:38 34° 95° (E) 22:08:40 435.000
TISAT 1 25 Jan 22:06:04 22:09:23 23° 64° (ENE) 22:12:47 437.305
UWE-3 25 Jan 22:09:06 22:12:38 20° 270° (W) 22:16:05 435.000/436.395/437.385
BUGSAT 1 25 Jan 22:15:26 22:18:51 24° 93° (E) 22:22:22 437.445
AIST 1 25 Jan 22:15:29 22:19:47 60° 77° (ENE) 22:24:05
POPSAT HIP 1 25 Jan 22:17:24 22:21:16 31° 95° (E) 22:25:08 437.405
HUMSAT D 25 Jan 22:17:51 22:21:39 29° 266° (W) 22:25:27 437.325/437.525
DUCHIFAT 1 25 Jan 22:22:18 22:26:15 34° 96° (E) 22:30:12 145.980
YUBILEINY 25 Jan 22:25:04 22:30:55 18° 309° (NW) 22:36:26 435.215
50 SAT 25 Jan 22:29:20 22:32:54 26° 266° (W) 22:36:25 437.505
VELOX 1 25 Jan 22:30:43 22:34:28 26° 266° (W) 22:38:11 145.980
ISS 25 Jan 22:30:45 22:32:50 16° 137° (SE) 22:34:59 145.825
BEESAT 25 Jan 22:39:34 22:40:59 11° 55° (NE) 22:42:36 436.000
ITUPSAT 1 25 Jan 22:40:56 22:42:25 12° 55° (NE) 22:44:06 437.325
CUBEBUG 1 25 Jan 22:50:17 22:54:20 37° 263° (W) 22:58:24 437.445
SPROUT 25 Jan 22:50:25 22:54:40 61° 73° (ENE) 22:58:58 437.525
UNISAT 6 25 Jan 22:51:11 22:55:45 76° 286° (WNW) 23:00:09 437.425
NANOSAT C BR1 25 Jan 22:55:47 23:00:08 77° 104° (ESE) 23:04:25 145.865
QB50P2 25 Jan 23:07:53 23:12:14 80° 285° (WNW) 23:16:32 145.880/145.840
QB50P1 25 Jan 23:18:39 23:22:57 63° 287° (WNW) 23:27:12 145.935-145.965
ANTELSAT 25 Jan 23:27:12 23:31:20 35° 293° (WNW) 23:35:20 437.575/2403.000
ESTCUBE 1 25 Jan 23:28:47 23:31:41 16° 271° (W) 23:34:27 437.505/2401.250
POLYITAN 1 25 Jan 23:30:56 23:35:07 47° 290° (WNW) 23:39:15 437.675
TIGRISAT 25 Jan 23:37:23 23:41:20 29° 294° (WNW) 23:45:08 435.000
TISAT 1 25 Jan 23:41:00 23:45:01 41° 262° (W) 23:49:05 437.305
BUGSAT 1 25 Jan 23:50:31 23:54:30 38° 291° (WNW) 23:58:28 437.445
POPSAT HIP 1 25 Jan 23:53:20 23:57:09 30° 293° (WNW) 00:00:53 437.405
AIST 1 25 Jan 23:54:33 23:57:01 15° 275° (W) 23:59:20
SWISSCUBE 25 Jan 23:56:54 00:01:31 54° 71° (ENE) 00:06:12 437.505
DUCHIFAT 1 25 Jan 23:58:21 00:02:02 27° 294° (WNW) 00:05:38 145.980
KKS-1 26 Jan 00:00:33 00:02:44 14° 58° (ENE) 00:05:05 437.445
STARS 26 Jan 00:04:34 00:04:59 10° 56° (NE) 00:05:36 437.465
ISS 26 Jan 00:05:40 00:08:57 82° 156° (SSE) 00:12:17 145.825
BEESAT 26 Jan 00:13:20 00:18:04 72° 73° (ENE) 00:22:51 436.000
ITUPSAT 1 26 Jan 00:14:49 00:19:34 72° 73° (ENE) 00:24:21 437.325
O/OREOS (USA 219) 26 Jan 00:15:58 00:17:33 12° 39° (NE) 00:19:18 437.305
SPROUT 26 Jan 00:28:36 00:31:15 15° 272° (W) 00:33:46 437.525
AUBIESAT-1 26 Jan 00:29:05 00:30:53 13° 57° (ENE) 00:32:46 437.475
GONETS M04 26 Jan 00:29:58 00:37:39 37° 85° (E) 00:45:28
UNISAT 6 26 Jan 00:30:26 00:31:47 11° 304° (NW) 00:32:56 437.425
NANOSAT C BR1 26 Jan 00:33:09 00:35:29 14° 300° (WNW) 00:37:40 145.865
QB50P2 26 Jan 00:46:16 00:47:29 11° 303° (WNW) 00:48:31 145.880/145.840
Oscar 19 26 Jan 01:14:33 01:19:40 58° 101° (E) 01:24:44 437.125/150
ITAMSAT 1 26 Jan 01:22:44 01:27:05 27° 93° (E) 01:31:30 435.822/435.867
M-CUBED/EXP-1 PRIME 26 Jan 01:25:11 01:29:09 50° 67° (ENE) 01:32:50 437.505
KKS-1 26 Jan 01:34:18 01:38:48 85° 252° (WSW) 01:43:21 437.445
SWISSCUBE 26 Jan 01:36:14 01:39:47 20° 270° (W) 01:43:14 437.505
STARS 26 Jan 01:36:17 01:40:43 70° 73° (ENE) 01:45:11 437.465
ISS 26 Jan 01:42:30 01:45:40 42° 354° (N) 01:48:51 145.825
O/OREOS (USA 219) 26 Jan 01:53:29 01:58:02 61° 61° (ENE) 02:02:36 437.305
BEESAT 26 Jan 01:53:39 01:56:32 15° 272° (W) 01:59:14 436.000
ITUPSAT 1 26 Jan 01:55:15 01:58:05 15° 272° (W) 02:00:45 437.325
Gurwin Techsat 1B 26 Jan 01:57:52 02:02:48 38° 96° (E) 02:07:45 435.225
AUBIESAT-1 26 Jan 02:01:24 02:05:29 73° 251° (WSW) 02:09:15 437.475
BEESAT 2 26 Jan 02:24:03 02:27:12 22° 115° (ESE) 02:30:28 435.950
GONETS M04 26 Jan 02:25:36 02:34:14 57° 287° (WNW) 02:42:49
AO-7 26 Jan 02:33:35 02:39:01 19° 86° (E) 02:44:49 29.400- 29.500
DANDE 26 Jan 02:33:48 02:37:49 15° 75° (ENE) 02:42:25 436.750
BEESAT 3 26 Jan 02:41:14 02:44:57 35° 119° (ESE) 02:48:47 437.485
MOZHAYETS 4 26 Jan 02:47:57 02:51:45 27° 66° (ENE) 02:55:38
Oscar 19 26 Jan 02:54:37 02:58:40 23° 299° (WNW) 03:02:36 437.125/150
M-CUBED/EXP-1 PRIME 26 Jan 03:01:41 03:04:23 16° 262° (W) 03:06:51 437.505
ITAMSAT 1 26 Jan 03:01:50 03:06:51 47° 292° (WNW) 03:11:50 435.822/435.867
RS-15 26 Jan 03:09:15 03:13:56 15° 97° (E) 03:19:29 29.354- 29.394
HORYU 2 26 Jan 03:10:41 03:15:07 58° 100° (E) 03:19:29 437.375
STARS 26 Jan 03:15:16 03:17:46 14° 273° (W) 03:20:06 437.465
KKS-1 26 Jan 03:15:45 03:16:17 10° 276° (W) 03:16:33 437.445
CUSAT 1 26 Jan 03:18:18 03:25:17 34° 86° (E) 03:32:39 437.405
ISS 26 Jan 03:19:17 03:22:34 53° 15° (NNE) 03:25:49 145.825
JAS-2 26 Jan 03:33:05 03:37:08 21° 91° (E) 03:41:40 435.910
O/OREOS (USA 219) 26 Jan 03:33:59 03:37:02 17° 259° (WSW) 03:39:57 437.305
Gurwin Techsat 1B 26 Jan 03:37:58 03:42:46 35° 295° (WNW) 03:47:31 435.225
AIST 2 26 Jan 03:38:04 03:42:10 49° 122° (ESE) 03:46:22 435.215
PCSat 26 Jan 03:40:20 03:43:19 16° 106° (ESE) 03:46:33 145.827
BEESAT 2 26 Jan 04:01:06 04:05:10 50° 314° (NW) 04:09:16 435.950
DANDE 26 Jan 04:11:51 04:19:46 61° 94° (E) 04:28:20 436.750
BEESAT 3 26 Jan 04:19:20 04:23:08 34° 318° (NW) 04:26:58 437.485
MOZHAYETS 4 26 Jan 04:24:33 04:28:53 39° 264° (W) 04:33:11
AO-7 26 Jan 04:24:51 04:33:16 82° 108° (ESE) 04:41:37 29.400- 29.500
PRISM 26 Jan 04:26:01 04:29:35 29° 67° (ENE) 04:33:12 437.425
GONETS M04 26 Jan 04:28:56 04:33:36 15° 313° (NW) 04:37:50
CUBESAT XI-V 26 Jan 04:30:26 04:34:06 25° 64° (ENE) 04:37:52 437.345
YUBILEINY 26 Jan 04:33:33 04:39:04 18° 51° (NE) 04:44:56 435.215
Cubesat XI-IV 26 Jan 04:39:40 04:41:12 11° 83° (E) 04:43:04 437.490
HORYU 2 26 Jan 04:48:17 04:51:25 19° 299° (WNW) 04:54:25 437.375
STRAND 1 26 Jan 04:49:00 04:53:24 31° 65° (ENE) 04:57:54 437.568
ISS 26 Jan 04:55:53 04:59:03 41° 213° (SSW) 05:02:11 145.825
CUTE-I 26 Jan 04:59:15 05:02:39 17° 88° (E) 05:06:16 437.470
CUSAT 1 26 Jan 04:59:45 05:07:54 68° 286° (WNW) 05:16:20 437.405
RS-15 26 Jan 05:13:33 05:24:09 63° 118° (ESE) 05:34:58 29.354- 29.394
AIST 2 26 Jan 05:17:18 05:21:02 28° 322° (NW) 05:24:46 435.215
JAS-2 26 Jan 05:17:21 05:22:44 64° 288° (WNW) 05:28:41 435.910
PCSat 26 Jan 05:20:38 05:26:04 90° 291° (WNW) 05:31:34 145.827
BEESAT 2 26 Jan 05:42:13 05:44:23 13° 335° (NNW) 05:46:27 435.950
DANDE 26 Jan 05:56:02 06:03:45 40° 296° (WNW) 06:11:44 436.750
BEESAT 3 26 Jan 06:01:30 06:02:32 11° 341° (NNW) 06:03:30 437.485
PRISM 26 Jan 06:01:30 06:05:08 29° 265° (W) 06:08:42 437.425
CUBESAT XI-V 26 Jan 06:06:58 06:11:21 43° 262° (W) 06:15:47 437.345
Cubesat XI-IV 26 Jan 06:16:57 06:22:21 77° 103° (ESE) 06:27:45 437.490
AO-7 26 Jan 06:18:25 06:25:21 30° 309° (NW) 06:32:06 29.400- 29.500
STRAND 1 26 Jan 06:27:44 06:32:31 40° 263° (W) 06:37:20 437.568
YUBILEINY 26 Jan 06:29:09 06:37:56 71° 77° (ENE) 06:46:44 435.215
CUTE-I 26 Jan 06:38:02 06:43:25 75° 288° (WNW) 06:48:47 437.470
CUSAT 1 26 Jan 06:46:43 06:52:41 20° 308° (NW) 06:58:20 437.405
AIST 2 26 Jan 07:00:48 07:01:05 10° 345° (NNW) 07:01:17 435.215
JAS-2 26 Jan 07:05:08 07:07:06 12° 306° (NW) 07:08:51 435.910
PCSat 26 Jan 07:05:59 07:10:17 23° 326° (NW) 07:14:30 145.827
CUTE 1.7 + AOD 2 26 Jan 07:25:35 07:26:10 10° 85° (E) 07:27:00 437.475
RS-15 26 Jan 07:26:22 07:36:59 52° 325° (NW) 07:47:49 29.354- 29.394
DANDE 26 Jan 07:47:03 07:50:05 12° 320° (NW) 07:52:38 436.750
Cubesat XI-IV 26 Jan 07:58:08 08:01:56 19° 302° (WNW) 08:05:36 437.490
SEEDS 26 Jan 07:58:56 08:02:03 20° 91° (E) 08:05:13 437.485
HO-68 26 Jan 08:02:01 08:08:26 36° 95° (E) 08:14:56 435.675
BRITE-PL 26 Jan 08:17:08 08:22:47 56° 98° (E) 08:28:17 437.365/2234.400
UNISAT 6 26 Jan 08:18:05 08:21:29 21° 62° (ENE) 08:24:59 437.425
NANOSAT C BR1 26 Jan 08:19:12 08:20:44 12° 58° (ENE) 08:22:28 145.865
CUTE-I 26 Jan 08:19:56 08:22:43 14° 306° (NW) 08:25:17 437.470
YUBILEINY 26 Jan 08:26:51 08:34:09 30° 278° (W) 08:41:14 435.215
GOMX 1 26 Jan 08:29:51 08:35:15 52° 98° (E) 08:40:28 467.674
COMPASS 1 26 Jan 08:29:53 08:33:43 34° 96° (E) 08:37:33 437.405
QB50P2 26 Jan 08:30:29 08:32:58 16° 61° (ENE) 08:35:36 145.880/145.840
CANX-2 26 Jan 08:33:54 08:38:07 58° 100° (E) 08:42:17 2200.000
QB50P1 26 Jan 08:40:30 08:43:26 19° 63° (ENE) 08:46:30 145.935-145.965
Oscar 11 26 Jan 08:48:28 08:52:02 25° 93° (E) 08:55:38 145.826/435.025
POLYITAN 1 26 Jan 08:52:23 08:55:50 24° 65° (ENE) 08:59:22 437.675
ANTELSAT 26 Jan 08:52:36 08:56:59 40° 69° (ENE) 09:01:24 437.575/2403.000
PCSat 26 Jan 08:55:02 08:55:51 10° 351° (N) 08:56:36 145.827
DOVE 4 26 Jan 08:57:54 09:03:13 68° 101° (ESE) 09:08:18 437.250
CUTE 1.7 + AOD 2 26 Jan 08:58:34 09:02:50 85° 284° (WNW) 09:07:03 437.475
AAUSAT CUBESAT 2 26 Jan 08:58:37 09:02:45 61° 101° (E) 09:06:51 437.432
TIGRISAT 26 Jan 09:02:12 09:06:43 47° 70° (ENE) 09:11:16 435.000
BEESAT 2 26 Jan 09:02:49 09:04:35 12° 23° (NNE) 09:06:26 435.950
CUBEBUG 2 26 Jan 09:07:43 09:11:47 30° 93° (E) 09:15:47 437.445
BUGSAT 1 26 Jan 09:09:13 09:12:37 26° 66° (ENE) 09:16:08 437.445
CINEMA 3 26 Jan 09:09:42 09:14:33 51° 98° (E) 09:19:12 145.822/145.860
DELFI C3 26 Jan 09:12:56 09:16:40 35° 96° (E) 09:20:24 145.870
POPSAT HIP 1 26 Jan 09:13:40 09:17:36 37° 69° (ENE) 09:21:36 437.405
DUCHIFAT 1 26 Jan 09:18:15 09:22:14 40° 69° (ENE) 09:26:17 145.980
BEESAT 3 26 Jan 09:20:01 09:22:33 16° 28° (NNE) 09:25:08 437.485
UKube-1 26 Jan 09:21:47 09:25:40 31° 96° (E) 09:29:34 .
ZACube-1 26 Jan 09:29:50 09:33:57 34° 95° (E) 09:37:57 437.345
SEEDS 26 Jan 09:34:07 09:38:07 43° 290° (WNW) 09:42:05 437.485
DX 1 26 Jan 09:38:23 09:42:39 47° 99° (E) 09:46:55 434.975-435.025
FUNcube-1 26 Jan 09:42:48 09:47:08 45° 98° (E) 09:51:21 145.935
RS-15 26 Jan 09:42:50 09:52:30 33° 357° (N) 10:02:27 29.354- 29.394
AISAT 26 Jan 09:47:30 09:51:12 25° 93° (E) 09:54:58 437.250
HO-68 26 Jan 09:49:33 09:56:29 54° 295° (WNW) 10:03:22 435.675
NANOSAT C BR1 26 Jan 09:51:43 09:56:00 89° 77° (ENE) 10:00:20 145.865
UNISAT 6 26 Jan 09:53:16 09:57:56 58° 260° (W) 10:02:36 437.425
UWE-3 26 Jan 09:54:30 09:59:07 72° 102° (ESE) 10:03:33 435.000/436.395/437.385
BRITE-PL 26 Jan 09:56:10 10:00:58 28° 297° (WNW) 10:05:35 437.365/2234.400
HUMSAT D 26 Jan 09:58:34 10:02:33 37° 96° (E) 10:06:29 437.325/437.525
QB50P2 26 Jan 10:04:10 10:08:26 68° 258° (WSW) 10:12:45 145.880/145.840
50 SAT 26 Jan 10:05:04 10:08:45 32° 95° (E) 10:12:25 437.505
COMPASS 1 26 Jan 10:05:52 10:09:21 25° 294° (WNW) 10:12:44 437.405
GOMX 1 26 Jan 10:08:27 10:13:05 28° 297° (WNW) 10:17:32 467.674
CANX-2 26 Jan 10:10:52 10:13:41 17° 298° (WNW) 10:16:22 2200.000
QB50P1 26 Jan 10:14:49 10:19:00 53° 260° (W) 10:23:14 145.935-145.965
VERMONT LUNAR 26 Jan 10:15:19 10:17:34 16° 162° (SSE) 10:19:52 437.305
VELOX 1 26 Jan 10:17:09 10:21:30 46° 99° (E) 10:25:50 145.980
AIST 2 26 Jan 10:18:51 10:22:01 20° 32° (NNE) 10:25:13 435.215
Oscar 11 26 Jan 10:24:21 10:28:20 36° 291° (WNW) 10:32:16 145.826/435.025
POLYITAN 1 26 Jan 10:27:33 10:31:37 39° 263° (W) 10:35:42 437.675
ANTELSAT 26 Jan 10:29:51 10:33:55 27° 267° (W) 10:37:56 437.575/2403.000
GONETS M04 26 Jan 10:35:16 10:41:41 23° 56° (NE) 10:48:22
AAUSAT CUBESAT 2 26 Jan 10:35:26 10:38:01 16° 298° (WNW) 10:40:28 437.432
CUBEBUG 1 26 Jan 10:35:42 10:39:40 32° 95° (E) 10:43:41 437.445
DOVE 4 26 Jan 10:36:32 10:40:29 21° 299° (WNW) 10:44:13 437.250
CUTE 1.7 + AOD 2 26 Jan 10:36:47 10:38:09 11° 302° (WNW) 10:39:19 437.475
SO-50 26 Jan 10:38:11 10:42:21 36° 118° (ESE) 10:46:42 436.795
PCSat 26 Jan 10:39:45 10:41:51 12° 17° (NNE) 10:44:03 145.827
BEESAT 2 26 Jan 10:39:51 10:43:54 43° 45° (NE) 10:47:54 435.950
TIGRISAT 26 Jan 10:39:58 10:43:44 23° 269° (W) 10:47:26 435.000
CUBEBUG 2 26 Jan 10:44:18 10:48:33 35° 293° (WNW) 10:52:38 437.445
BUGSAT 1 26 Jan 10:44:19 10:48:02 33° 264° (W) 10:51:48 437.445
CINEMA 3 26 Jan 10:47:30 10:51:27 24° 297° (WNW) 10:55:12 145.822/145.860
DELFI C3 26 Jan 10:48:30 10:51:48 24° 294° (WNW) 10:55:00 145.870
AIST 1 26 Jan 10:49:06 10:52:46 29° 90° (E) 10:56:29
POPSAT HIP 1 26 Jan 10:50:05 10:53:38 24° 267° (W) 10:57:09 437.405
PHONESAT 2.4 26 Jan 10:54:45 10:57:15 18° 163° (SSE) 10:59:49 2401.200-2431.200
DUCHIFAT 1 26 Jan 10:54:53 10:58:17 22° 268° (W) 11:01:38 145.980
BEESAT 3 26 Jan 10:57:19 11:01:30 67° 50° (NE) 11:05:37 437.485
Oscar 19 26 Jan 10:57:33 11:01:08 20° 59° (ENE) 11:04:52 437.125/150
UKube-1 26 Jan 10:57:58 11:01:50 30° 294° (WNW) 11:05:37 .
ZACube-1 26 Jan 11:06:20 11:10:15 29° 294° (WNW) 11:14:01 437.345
ITAMSAT 1 26 Jan 11:09:59 11:10:26 10° 51° (NE) 11:11:09 435.822/435.867
DX 1 26 Jan 11:15:15 11:18:39 22° 297° (WNW) 11:21:58 434.975-435.025
ESTCUBE 1 26 Jan 11:15:58 11:20:32 84° 105° (ESE) 11:25:04 437.505/2401.250
FUNcube-1 26 Jan 11:19:42 11:23:15 23° 296° (WNW) 11:26:38 145.935
TISAT 1 26 Jan 11:22:43 11:26:15 25° 93° (E) 11:29:50 437.305
AISAT 26 Jan 11:23:46 11:28:00 40° 291° (WNW) 11:32:12 437.250
NANOSAT C BR1 26 Jan 11:32:01 11:32:38 10° 275° (W) 11:33:01 145.865
UWE-3 26 Jan 11:32:16 11:35:08 16° 300° (WNW) 11:37:49 435.000/436.395/437.385
HUMSAT D 26 Jan 11:34:41 11:38:12 25° 295° (WNW) 11:41:37 437.325/437.525
HO-68 26 Jan 11:39:15 11:42:49 14° 316° (NW) 11:46:06 435.675
50 SAT 26 Jan 11:40:22 11:43:49 26° 294° (WNW) 11:47:09 437.505
Gurwin Techsat 1B 26 Jan 11:45:38 11:48:23 15° 55° (NE) 11:51:19 435.225
AO-7 26 Jan 11:49:40 11:52:42 13° 33° (NNE) 11:56:03 29.400- 29.500
VERMONT LUNAR 26 Jan 11:52:09 11:55:05 25° 179° (S) 11:58:02 437.305
VELOX 1 26 Jan 11:54:18 11:57:51 23° 296° (WNW) 12:01:18 145.980
SWISSCUBE 26 Jan 11:56:37 11:57:31 11° 84° (E) 11:58:44 437.505
AIST 2 26 Jan 11:56:54 12:01:14 86° 234° (SW) 12:05:29 435.215
RS-15 26 Jan 11:57:42 12:08:19 46° 30° (NNE) 12:19:26 29.354- 29.394
SPROUT 26 Jan 12:09:46 12:14:10 76° 103° (ESE) 12:18:31 437.525
BEESAT 26 Jan 12:11:45 12:14:13 14° 87° (E) 12:16:53 436.000
CUBEBUG 1 26 Jan 12:12:07 12:16:03 31° 293° (WNW) 12:19:56 437.445
ITUPSAT 1 26 Jan 12:13:32 12:16:05 15° 87° (E) 12:18:50 437.325
BEESAT 2 26 Jan 12:18:26 12:21:57 26° 244° (WSW) 12:25:22 435.950
SO-50 26 Jan 12:18:30 12:22:53 40° 319° (NW) 12:27:25 436.795
PCSat 26 Jan 12:22:12 12:27:04 32° 42° (NE) 12:31:57 145.827
AIST 1 26 Jan 12:26:43 12:30:27 28° 289° (WNW) 12:34:09
GONETS M04 26 Jan 12:31:17 12:40:04 87° 82° (E) 12:48:46
PHONESAT 2.4 26 Jan 12:32:09 12:35:14 26° 180° (S) 12:38:20 2401.200-2431.200
Oscar 19 26 Jan 12:34:49 12:40:01 72° 257° (WSW) 12:45:14 437.125/150
BEESAT 3 26 Jan 12:36:35 12:39:13 16° 247° (WSW) 12:41:41 437.485
HORYU 2 26 Jan 12:39:07 12:40:47 12° 57° (ENE) 12:42:38 437.375
ITAMSAT 1 26 Jan 12:43:55 12:48:57 56° 70° (ENE) 12:54:04 435.822/435.867
ESTCUBE 1 26 Jan 12:54:26 12:56:51 14° 301° (WNW) 12:59:07 437.505/2401.250
TISAT 1 26 Jan 12:58:13 13:02:12 37° 291° (WNW) 13:06:08 437.305
DANDE 26 Jan 13:11:24 13:15:12 15° 44° (NE) 13:18:55 436.750
Gurwin Techsat 1B 26 Jan 13:22:19 13:27:37 81° 75° (ENE) 13:32:59 435.225
KKS-1 26 Jan 13:23:32 13:26:04 15° 88° (E) 13:28:46 437.445
STARS 26 Jan 13:26:07 13:26:28 10° 84° (E) 13:27:06 437.465
VERMONT LUNAR 26 Jan 13:30:07 13:32:39 18° 195° (SSW) 13:35:08 437.305
SWISSCUBE 26 Jan 13:31:27 13:36:17 83° 103° (ESE) 13:41:05 437.505
AO-7 26 Jan 13:35:48 13:43:19 40° 56° (ENE) 13:50:57 29.400- 29.500
AIST 2 26 Jan 13:37:48 13:39:13 11° 250° (WSW) 13:40:25 435.215
SPROUT 26 Jan 13:47:19 13:49:45 14° 300° (WNW) 13:52:02 437.525
BEESAT 26 Jan 13:47:57 13:52:44 76° 286° (WNW) 13:57:31 436.000
ITUPSAT 1 26 Jan 13:49:50 13:54:38 75° 287° (WNW) 13:59:25 437.325
JAS-2 26 Jan 13:52:02 13:54:25 13° 56° (NE) 13:57:00 435.910
CUSAT 1 26 Jan 13:56:23 14:02:20 28° 58° (ENE) 14:07:13 437.405
SO-50 26 Jan 14:02:12 14:04:47 14° 342° (NNW) 14:07:19 436.795
PCSat 26 Jan 14:05:29 14:10:48 54° 243° (WSW) 14:16:03 145.827
RS-15 26 Jan 14:10:30 14:21:48 78° 237° (WSW) 14:33:34 29.354- 29.394
PHONESAT 2.4 26 Jan 14:10:37 14:13:13 18° 196° (SSW) 14:15:48 2401.200-2431.200
HORYU 2 26 Jan 14:12:17 14:16:48 83° 75° (ENE) 14:21:20 437.375
Oscar 19 26 Jan 14:19:58 14:20:27 10° 278° (W) 14:20:35 437.125/150
ITAMSAT 1 26 Jan 14:24:50 14:28:53 22° 269° (W) 14:32:51 435.822/435.867
GONETS M04 26 Jan 14:29:30 14:35:54 23° 282° (WNW) 14:41:57
M-CUBED/EXP-1 PRIME 26 Jan 14:39:34 14:41:53 18° 99° (E) 14:44:17 437.505
DANDE 26 Jan 14:53:25 15:00:54 60° 71° (ENE) 15:06:35 436.750
KKS-1 26 Jan 14:58:46 15:03:16 66° 287° (WNW) 15:07:43 437.445
STARS 26 Jan 14:59:16 15:03:46 86° 99° (E) 15:08:14 437.465
Gurwin Techsat 1B 26 Jan 15:05:07 15:08:22 16° 274° (W) 15:11:24 435.225
SWISSCUBE 26 Jan 15:10:45 15:13:36 15° 302° (WNW) 15:16:17 437.505
AUBIESAT-1 26 Jan 15:14:44 15:17:54 41° 105° (ESE) 15:21:07 437.475
AO-7 26 Jan 15:27:37 15:35:52 60° 257° (WSW) 15:44:09 29.400- 29.500
BEESAT 26 Jan 15:27:54 15:29:52 12° 304° (NW) 15:31:37 436.000
ITUPSAT 1 26 Jan 15:29:54 15:31:48 12° 304° (NW) 15:33:30 437.325
JAS-2 26 Jan 15:33:21 15:38:54 80° 75° (ENE) 15:44:09 435.910
CUSAT 1 26 Jan 15:39:13 15:46:05 58° 266° (W) 15:51:15 437.405
SO-50 26 Jan 15:45:59 15:47:23 11° 6° (N) 15:48:50 436.795
HORYU 2 26 Jan 15:52:17 15:54:11 12° 274° (W) 15:55:51 437.375
Cubesat XI-IV 26 Jan 16:03:46 16:08:11 28° 63° (ENE) 16:12:44 437.490
O/OREOS (USA 219) 26 Jan 16:09:23 16:13:27 35° 107° (ESE) 16:17:37 437.305
M-CUBED/EXP-1 PRIME 26 Jan 16:14:04 16:17:03 30° 297° (WNW) 16:20:01 437.505
MOZHAYETS 4 26 Jan 16:16:05 16:20:20 38° 96° (E) 16:24:37
CUTE-I 26 Jan 16:24:04 16:28:58 39° 66° (ENE) 16:33:56 437.470
RS-15 26 Jan 16:24:26 16:32:40 22° 258° (WSW) 16:40:30 29.354- 29.394
STARS 26 Jan 16:37:26 16:39:40 13° 302° (WNW) 16:41:44 437.465
DANDE 26 Jan 16:37:43 16:43:43 28° 277° (W) 16:48:28 436.750
AUBIESAT-1 26 Jan 16:50:38 16:52:38 15° 302° (WNW) 16:54:32 437.475
HO-68 26 Jan 16:53:57 16:54:47 10° 39° (NE) 16:55:58 435.675
JAS-2 26 Jan 17:21:40 17:24:48 15° 273° (W) 17:27:36 435.910
SO-50 26 Jan 17:25:58 17:29:44 22° 30° (NNE) 17:33:35 436.795
AO-7 26 Jan 17:27:26 17:30:48 12° 280° (W) 17:33:29 29.400- 29.500
PRISM 26 Jan 17:40:34 17:44:13 29° 96° (E) 17:47:53 437.425
YUBILEINY 26 Jan 17:42:46 17:47:09 16° 74° (ENE) 17:52:03 435.215
Cubesat XI-IV 26 Jan 17:42:57 17:48:06 49° 261° (W) 17:53:17 437.490
O/OREOS (USA 219) 26 Jan 17:48:56 17:52:57 30° 307° (NW) 17:56:58 437.305
MOZHAYETS 4 26 Jan 17:53:35 17:57:29 27° 294° (WNW) 18:01:17
BRITE-PL 26 Jan 17:55:40 17:58:27 15° 55° (NE) 18:01:31 437.365/2234.400
CUBESAT XI-V 26 Jan 18:00:06 18:04:26 36° 96° (E) 18:08:48 437.345
CUTE-I 26 Jan 18:04:20 18:09:09 33° 265° (W) 18:13:56 437.470
GOMX 1 26 Jan 18:06:19 18:08:44 14° 55° (NE) 18:11:26 467.674
CUTE 1.7 + AOD 2 26 Jan 18:21:27 18:23:32 14° 60° (ENE) 18:25:47 437.475
DOVE 4 26 Jan 18:31:22 18:34:24 16° 58° (ENE) 18:37:41 437.250
HO-68 26 Jan 18:34:16 18:40:43 39° 60° (ENE) 18:47:16 435.675
STRAND 1 26 Jan 18:34:18 18:39:21 53° 100° (E) 18:44:24 437.568
CINEMA 3 26 Jan 18:41:08 18:42:50 12° 55° (NE) 18:44:46 145.822/145.860
SEEDS 26 Jan 18:54:39 18:58:01 24° 65° (ENE) 19:01:28 437.485
SO-50 26 Jan 19:06:04 19:11:01 85° 51° (NE) 19:15:58 436.795
PRISM 26 Jan 19:16:07 19:19:43 29° 293° (WNW) 19:23:18 437.425
UWE-3 26 Jan 19:21:13 19:23:24 14° 58° (ENE) 19:25:47 435.000/436.395/437.385
COMPASS 1 26 Jan 19:24:41 19:28:36 38° 70° (ENE) 19:32:33 437.405
CANX-2 26 Jan 19:30:05 19:34:21 65° 74° (ENE) 19:38:38 2200.000
BRITE-PL 26 Jan 19:31:05 19:36:07 82° 76° (ENE) 19:41:36 437.365/2234.400
YUBILEINY 26 Jan 19:33:55 19:42:31 71° 95° (E) 19:51:12 435.215
CUBESAT XI-V 26 Jan 19:37:45 19:41:49 29° 294° (WNW) 19:45:51 437.345
GOMX 1 26 Jan 19:40:56 19:45:58 75° 74° (ENE) 19:51:22 467.674
Oscar 11 26 Jan 19:46:33 19:50:23 31° 67° (ENE) 19:54:14 145.826/435.025
AAUSAT CUBESAT 2 26 Jan 19:52:53 19:57:04 66° 74° (ENE) 20:01:15 437.432
CUTE 1.7 + AOD 2 26 Jan 19:54:39 19:58:58 78° 258° (WSW) 20:03:17 437.475
DELFI C3 26 Jan 20:04:31 20:08:16 36° 69° (ENE) 20:12:03 145.870
DOVE 4 26 Jan 20:06:26 20:11:28 88° 253° (WSW) 20:16:48 437.250
CUBEBUG 2 26 Jan 20:08:59 20:13:22 39° 68° (ENE) 20:17:51 437.445
STRAND 1 26 Jan 20:14:06 20:18:17 25° 298° (WNW) 20:22:22 437.568
CINEMA 3 26 Jan 20:14:17 20:19:11 69° 73° (ENE) 20:24:14 145.822/145.860
UKube-1 26 Jan 20:20:03 20:24:07 42° 69° (ENE) 20:28:14 .
HO-68 26 Jan 20:21:25 20:28:21 50° 260° (W) 20:35:17 435.675
ZACube-1 26 Jan 20:28:54 20:33:14 43° 70° (ENE) 20:37:38 437.345
SEEDS 26 Jan 20:29:40 20:33:41 39° 263° (W) 20:37:43 437.485
DX 1 26 Jan 20:37:14 20:41:32 64° 72° (ENE) 20:45:53 434.975-435.025
FUNcube-1 26 Jan 20:41:38 20:46:08 55° 72° (ENE) 20:50:41 145.935
ESTCUBE 1 26 Jan 20:44:28 20:47:06 16° 60° (ENE) 20:49:53 437.505/2401.250
SO-50 26 Jan 20:47:58 20:51:02 16° 249° (WSW) 20:53:55 436.795
AISAT 26 Jan 20:48:52 20:52:53 34° 67° (ENE) 20:56:58 437.250
HUMSAT D 26 Jan 20:53:47 20:57:53 42° 70° (ENE) 21:02:02 437.325/437.525
AIST 1 26 Jan 20:53:51 20:55:29 12° 61° (ENE) 20:57:19
UWE-3 26 Jan 20:54:36 20:59:18 87° 76° (ENE) 21:04:04 435.000/436.395/437.385
50 SAT 26 Jan 20:55:50 20:59:33 33° 69° (ENE) 21:03:20 437.505
COMPASS 1 26 Jan 21:01:03 21:04:29 23° 268° (W) 21:07:51 437.405
CANX-2 26 Jan 21:08:22 21:10:49 14° 272° (W) 21:13:05 2200.000
BRITE-PL 26 Jan 21:12:29 21:15:31 15° 277° (W) 21:18:27 437.365/2234.400
VELOX 1 26 Jan 21:18:12 21:22:34 64° 73° (ENE) 21:27:01 145.980
GOMX 1 26 Jan 21:21:28 21:24:50 17° 275° (W) 21:28:07 467.674
Oscar 11 26 Jan 21:22:41 21:26:33 30° 265° (W) 21:30:25 145.826/435.025
AAUSAT CUBESAT 2 26 Jan 21:31:00 21:33:15 14° 273° (W) 21:35:19 437.432
YUBILEINY 26 Jan 21:32:44 21:40:15 31° 298° (WNW) 21:47:40 435.215
SPROUT 26 Jan 21:34:26 21:36:02 12° 58° (ENE) 21:37:49 437.525
CUBEBUG 1 26 Jan 21:35:18 21:39:21 40° 69° (ENE) 21:43:29 437.445
NANOSAT C BR1 26 Jan 21:35:42 21:37:14 12° 86° (E) 21:38:59 145.865
DELFI C3 26 Jan 21:40:20 21:43:39 23° 267° (W) 21:46:53 145.870
UNISAT 6 26 Jan 21:42:45 21:46:22 24° 92° (E) 21:49:58 437.425
